GEFSNGP_con_prob3kmehi_228.txt.gz
EHI
0 0 0 0 0 0 0 0 1 3 8 13 17 17 17 20 26 34 41 51 59 63 68 73 73 70 64 61 61 62 59 58 57 54 50 46 43 39 34 32 30 27 22 17
0 0 0 0 0 0 0 0 1 4 10 15 19 20 22 25 29 34 41 50 58 64 69 71 70 68 65 62 63 63 62 60 60 57 51 46 44 40 35 32 30 28 23 19
0 0 0 0 0 1 2 3 4 7 12 16 19 23 28 32 35 38 43 49 56 64 68 68 67 67 66 64 63 63 61 60 61 59 52 46 44 42 37 33 32 30 27 23
0 0 0 0 1 3 5 7 9 11 14 15 17 24 32 39 42 44 47 51 56 60 63 64 64 65 65 62 61 60 59 57 58 57 52 46 42 41 38 34 33 31 28 26
0 0 0 0 2 5 7 9 12 15 17 16 17 23 34 43 46 47 51 54 56 56 57 60 61 61 60 58 57 57 57 56 55 53 50 45 40 38 37 36 34 31 27 24
0 0 0 1 3 6 8 10 14 19 21 21 21 27 38 46 50 52 54 56 56 57 58 58 58 58 56 54 53 53 54 55 52 50 48 45 41 38 37 36 34 30 26 23
0 0 1 2 4 8 13 18 23 26 28 29 31 36 43 50 54 56 57 57 58 61 62 59 59 59 55 50 49 49 51 52 51 49 46 44 42 40 37 33 29 27 25 23
1 2 5 8 10 17 26 30 33 34 35 38 42 43 46 51 55 58 58 57 58 62 62 62 62 61 56 50 47 48 49 49 48 46 44 43 41 39 34 30 26 24 24 23
5 7 13 17 20 26 32 34 36 38 40 43 45 45 47 51 54 55 54 55 57 59 59 59 61 61 58 53 48 46 46 45 42 40 40 42 39 34 30 26 23 22 21 21
12 13 17 21 24 28 29 30 33 38 42 44 45 47 50 53 54 53 52 53 55 55 53 53 55 57 57 54 48 43 42 41 37 34 35 37 34 28 25 22 19 19 19 18
20 19 19 22 25 26 26 27 31 38 43 44 44 47 50 53 53 53 53 53 53 52 50 48 49 52 53 51 48 43 40 38 35 31 30 29 25 19 17 15 13 13 15 16
25 24 23 24 24 24 26 27 30 39 43 44 44 45 48 50 50 50 51 51 50 49 44 41 40 43 45 46 45 42 38 36 33 30 28 25 19 15 12 9 7 6 8 10
26 25 25 24 22 23 25 26 29 35 39 41 42 44 45 46 45 44 45 44 43 41 36 32 30 33 37 40 40 37 34 32 29 27 26 22 18 16 13 9 5 3 2 2
24 25 25 24 23 25 26 26 28 31 34 36 38 40 42 41 40 40 38 34 31 31 30 26 24 26 31 35 36 34 30 27 25 25 24 21 19 18 17 14 11 7 3 1
23 25 27 27 28 29 28 28 30 31 32 32 34 36 36 36 36 36 34 30 27 27 27 25 23 25 29 33 35 32 27 24 24 25 24 22 20 20 19 17 15 12 7 3
20 23 25 27 28 28 28 29 31 31 30 30 30 31 31 32 33 33 30 29 29 28 27 26 25 26 29 32 33 32 29 25 24 26 26 23 22 21 20 18 17 15 10 6
15 17 19 20 21 22 23 25 26 27 26 26 27 27 28 29 29 28 27 27 28 28 28 29 28 27 27 28 30 31 31 28 26 26 25 22 21 21 20 19 18 16 12 9
12 12 12 13 15 18 19 18 19 20 20 20 22 24 24 24 24 24 24 24 23 24 27 28 27 25 24 23 25 27 28 27 25 23 22 19 17 18 19 19 18 17 15 11
11 10 9 10 13 15 15 14 14 15 15 15 16 17 17 17 18 20 21 20 18 18 22 23 21 21 19 17 18 19 19 19 20 20 18 16 15 16 18 18 16 16 15 12
10 10 9 10 11 11 12 12 12 11 11 10 10 10 10 11 12 15 16 15 14 15 17 17 16 15 13 10 9 10 11 12 15 17 17 16 15 17 18 16 14 13 12 11
7 7 8 8 7 7 8 8 8 7 7 6 6 6 7 8 9 10 11 11 11 12 11 11 10 9 8 6 4 5 8 10 12 16 18 17 16 15 14 13 12 10 10 9
7 6 6 6 5 4 4 5 4 3 3 4 4 5 7 9 9 9 9 10 9 8 7 7 5 5 4 4 4 4 6 8 11 15 18 18 15 13 11 10 10 10 9 9
8 7 6 5 4 3 2 2 2 1 1 3 4 5 8 10 9 7 7 6 5 4 4 4 3 2 3 4 4 4 4 7 9 11 14 15 14 12 10 8 8 9 9 9
7 6 5 4 3 2 1 1 2 1 1 2 3 4 7 8 7 5 5 3 2 1 2 2 1 1 3 4 4 4 4 6 7 8 9 10 11 11 10 9 8 8 8 7
2 3 2 2 1 0 0 1 1 1 0 1 2 3 4 4 4 4 3 2 1 0 0 0 0 1 3 4 4 4 4 5 5 4 4 5 8 10 11 11 10 8 6 5
1 2 2 1 0 0 0 0 0 0 0 0 1 2 3 4 5 5 4 3 1 1 1 1 1 1 2 3 3 3 4 4 4 2 1 2 5 8 9 10 9 7 5 5
1 2 2 1 0 0 0 0 0 0 0 1 2 4 5 6 7 6 5 3 1 2 2 2 2 1 1 1 2 2 3 4 4 2 1 1 4 5 6 6 6 5 4 4

GEFSNGP_con_prob3kmehi_234.txt.gz
EHI
0 0 1 1 1 1 1 2 4 6 6 6 8 10 14 19 24 28 30 31 30 32 36 37 35 35 40 48 51 49 47 43 37 31 28 26 23 18 15 15 12 8 7 6
0 0 1 2 2 2 2 3 4 6 7 9 13 16 18 20 24 27 28 28 29 32 37 38 36 35 39 46 50 49 46 42 36 31 28 27 23 19 16 15 13 10 7 7
0 0 1 2 2 3 4 6 7 9 13 18 22 24 22 21 23 25 25 25 28 33 37 38 36 35 37 42 47 47 43 38 34 32 30 27 23 18 15 13 12 10 8 7
0 0 0 1 2 4 8 11 14 17 22 25 27 27 24 22 22 22 23 25 28 34 37 36 34 33 35 40 44 45 43 38 33 32 33 29 23 17 13 10 9 8 8 7
0 0 0 1 3 5 10 15 19 24 27 28 28 28 24 22 22 23 24 27 32 36 37 35 31 31 34 38 41 43 43 39 36 36 37 33 25 17 12 10 7 6 6 5
0 0 0 2 4 6 9 15 20 24 27 29 28 26 23 22 23 25 26 29 34 37 37 34 31 31 35 38 39 40 41 41 41 41 38 34 28 20 14 10 6 4 4 5
0 0 0 2 6 7 9 14 17 18 22 26 26 24 23 23 24 25 27 28 31 34 35 33 31 32 36 38 38 38 39 39 40 39 36 33 30 24 18 13 9 5 4 5
0 0 1 3 5 7 10 14 14 14 16 22 24 24 25 26 24 23 26 26 25 27 29 29 29 32 36 38 38 37 37 35 33 32 32 32 32 29 23 18 13 8 6 5
2 2 3 4 5 8 12 16 15 13 15 20 24 25 25 25 24 24 25 24 22 22 24 26 26 29 33 34 35 35 34 31 28 27 30 32 33 31 26 20 16 12 9 7
5 5 6 7 7 9 15 18 17 16 19 24 26 26 25 25 27 27 25 23 21 20 22 25 25 26 27 28 30 32 31 28 26 25 28 30 31 30 26 20 17 15 12 10
6 6 7 8 9 11 15 17 16 17 21 26 28 30 29 31 33 32 28 26 24 22 21 23 24 23 22 23 25 27 26 25 24 24 25 25 24 22 20 15 13 12 11 11
4 4 5 8 10 13 15 16 15 16 19 23 28 32 35 36 37 35 31 30 28 25 21 20 22 22 20 20 21 21 21 20 20 21 20 18 16 15 12 8 5 5 6 6
5 5 6 9 13 15 16 16 14 14 17 20 24 30 33 35 35 33 30 30 28 24 20 18 19 19 18 17 18 18 17 17 17 16 17 15 13 11 8 4 1 1 1 2
9 9 10 11 13 16 17 16 14 14 16 18 22 26 29 31 31 29 27 25 22 19 18 16 15 15 14 14 15 16 15 14 14 14 15 14 12 9 7 4 1 0 0 0
12 13 13 12 13 15 16 16 16 16 17 20 23 25 27 28 27 26 24 21 18 16 15 14 13 13 12 11 12 13 13 11 10 11 13 12 10 7 5 3 1 1 1 0
12 12 13 12 13 15 16 17 17 18 19 22 23 23 24 25 25 24 22 19 16 14 13 13 13 13 12 10 10 11 10 8 7 8 9 9 8 7 5 3 1 1 2 1
9 10 11 11 12 14 15 17 18 18 20 21 20 19 19 21 21 22 21 18 14 12 12 13 13 14 13 9 8 9 8 7 5 5 5 5 6 6 5 4 3 2 2 2
6 6 7 8 9 11 13 15 16 17 18 17 16 14 15 16 17 19 18 16 12 10 11 12 12 13 12 8 6 8 9 8 6 4 4 4 4 4 4 5 4 3 2 1
3 3 4 4 5 7 10 12 14 14 14 13 12 11 11 11 12 13 13 12 10 9 10 10 9 10 10 7 5 7 8 7 6 5 5 4 3 2 3 4 4 4 2 1
3 2 3 3 3 4 6 8 10 11 11 10 9 9 9 8 8 8 8 8 7 7 6 6 7 8 8 7 6 6 6 5 4 4 4 4 2 1 1 3 4 4 3 3
3 3 2 2 2 2 3 4 6 8 9 9 8 8 8 7 6 5 5 5 4 4 4 4 5 6 7 7 5 4 4 3 3 3 3 2 1 0 1 2 4 4 3 3
2 2 1 1 1 1 1 2 3 4 5 6 7 7 7 6 5 5 5 4 4 3 3 3 4 5 6 5 5 4 3 3 3 3 2 1 0 0 1 2 3 3 3 4
1 1 0 0 0 0 0 1 1 1 2 3 4 5 4 3 3 3 3 3 3 2 2 3 3 4 4 4 6 5 4 3 3 2 1 0 0 0 0 1 2 2 3 3
0 0 0 0 0 0 0 0 0 0 0 1 2 2 2 1 1 1 1 1 1 1 1 1 2 2 2 5 6 5 4 3 3 2 0 0 0 0 0 0 1 1 1 1
0 0 0 0 0 0 0 0 0 0 0 0 1 1 1 0 0 0 0 0 0 0 0 0 0 0 1 4 5 4 3 3 3 2 1 1 0 0 0 0 0 0 0 0
0 0 0 0 0 0 0 0 0 0 0 0 0 0 0 0 0 0 0 0 0 0 0 0 0 0 1 2 2 3 3 3 3 3 3 2 1 0 0 0 0 0 0 0
0 0 0 0 0 0 0 0 0 0 0 0 0 0 0 0 0 0 0 0 0 0 0 0 0 0 0 1 1 2 3 3 3 3 3 2 1 1 1 1 0 0 0 0

GEFSNGP_con_prob3kmehi_240.txt.gz
EHI
0 0 0 0 0 1 0 0 0 0 0 1 2 3 8 12 14 17 19 18 15 13 13 10 9 11 16 20 23 23 20 17 17 16 13 8 6 6 7 6 5 4 4 4
0 0 0 0 0 1 1 1 1 1 1 3 4 5 8 11 14 17 18 15 11 11 13 11 9 11 17 24 27 25 21 17 15 14 13 10 7 7 7 6 5 5 5 5
0 0 0 0 0 2 3 3 3 3 4 6 7 7 9 11 14 18 18 14 12 12 13 12 10 11 18 27 30 26 22 18 16 14 13 12 9 7 6 5 5 5 4 3
0 0 0 0 1 3 5 6 5 5 8 9 9 8 9 11 15 19 18 16 15 15 13 12 11 12 17 25 27 25 22 20 17 16 15 14 12 9 5 4 3 2 1 1
0 0 0 0 1 3 6 8 7 7 10 11 10 8 9 11 13 16 16 15 15 16 14 13 13 14 17 21 24 24 23 20 18 18 17 17 16 11 5 2 1 0 0 0
0 0 0 0 1 2 5 7 7 7 10 11 10 8 8 8 10 13 13 13 14 16 14 12 12 15 17 19 20 22 22 21 20 21 22 22 20 15 7 2 0 0 0 0
0 0 0 1 1 1 3 5 6 6 8 10 9 6 5 5 9 13 13 12 13 15 12 8 9 12 15 17 17 18 20 20 20 22 23 25 23 17 9 4 3 2 1 1
0 0 0 1 1 1 1 3 5 6 7 9 9 6 4 5 9 13 12 11 12 13 9 6 6 8 12 13 15 17 19 19 20 21 22 23 22 16 9 7 7 6 5 5
2 1 1 1 1 1 2 3 5 6 8 9 9 7 7 7 9 11 11 10 12 12 9 5 5 6 8 10 14 19 21 21 22 21 21 20 19 14 9 7 8 9 9 10
4 4 3 3 3 3 4 4 5 8 9 8 6 6 8 8 8 9 10 11 13 11 8 5 4 4 4 8 14 18 19 20 21 20 19 17 15 13 11 9 9 10 11 11
5 4 3 4 5 5 5 5 6 8 8 7 5 5 6 7 8 9 11 12 14 11 7 5 3 2 3 6 11 14 14 14 15 15 15 14 12 10 10 9 8 8 8 8
2 2 3 4 4 4 5 5 6 7 6 7 7 6 6 7 9 11 12 13 14 11 7 5 4 3 4 6 8 10 10 10 11 12 12 12 10 8 5 4 3 3 3 4
1 1 3 4 4 4 5 5 7 7 6 7 8 7 7 8 10 12 13 14 14 11 8 7 6 6 6 8 9 9 9 9 10 10 11 10 9 7 5 2 0 0 1 1
1 1 4 6 7 7 6 7 8 8 8 8 8 8 7 8 10 11 13 14 14 12 10 8 7 7 7 8 9 10 8 8 8 9 9 9 7 6 6 4 1 0 0 0
3 3 5 8 9 9 9 8 9 10 8 6 6 7 8 8 9 11 12 12 13 13 11 9 8 8 7 7 8 8 8 7 7 8 9 9 7 4 4 3 1 0 0 0
5 5 7 9 10 10 9 9 9 8 6 3 3 6 8 9 10 11 12 12 13 12 11 9 8 7 6 5 5 6 7 7 7 8 8 8 6 3 2 2 1 0 0 0
5 6 7 8 9 9 9 8 7 5 3 2 2 4 7 10 12 12 11 11 12 11 9 8 6 5 4 3 3 5 6 6 7 7 6 5 4 3 2 1 0 0 0 0
5 5 6 6 7 7 7 7 6 4 3 3 4 5 6 8 10 10 10 10 10 10 8 6 5 4 3 1 1 3 5 6 6 5 4 3 3 3 2 1 0 0 0 0
4 4 4 4 5 6 6 6 6 4 3 3 4 5 5 6 7 8 9 8 8 8 6 4 3 3 2 1 1 2 5 5 5 4 3 2 2 2 1 0 0 0 0 0
3 3 3 3 4 4 5 6 6 4 3 3 3 4 5 5 6 7 7 7 6 6 5 3 2 2 1 0 1 4 6 6 6 4 2 2 1 0 0 0 1 1 1 0
3 3 3 3 3 3 4 5 6 4 3 4 4 5 5 5 6 6 6 6 4 4 3 2 1 1 0 0 1 4 6 6 6 4 3 1 0 0 0 1 2 2 1 0
2 2 2 2 2 2 2 3 4 4 4 4 5 5 5 5 5 6 6 6 4 3 2 1 1 0 0 0 1 3 4 4 3 3 2 1 0 0 0 1 2 1 0 0
1 1 1 1 1 1 1 1 2 2 3 4 4 5 5 5 6 6 6 5 3 2 2 1 0 0 0 0 0 1 1 1 1 1 1 0 0 0 0 1 2 1 0 0
0 0 0 0 0 0 0 0 0 1 3 3 4 5 5 5 6 6 5 3 1 0 1 1 0 0 0 0 0 0 0 0 0 0 0 0 0 0 0 1 1 0 0 0
0 0 0 0 0 0 0 0 0 1 2 2 3 3 3 4 4 4 3 2 1 1 1 0 0 0 0 0 0 0 0 0 0 0 0 0 0 0 0 0 0 0 0 0
0 0 0 0 0 0 0 0 0 0 1 1 1 1 1 1 1 1 1 2 2 2 1 0 0 0 0 0 0 0 0 0 0 0 0 0 0 0 0 0 1 2 1 0
0 0 0 0 0 0 0 0 0 0 0 0 0 0 0 0 0 0 0 1 1 1 1 0 0 0 0 0 0 0 0 0 0 0 0 0 0 0 0 1 2 3 2 1

GEFSNGP_con_prob3kmehi_246.txt.gz
EHI
0 0 0 0 0 0 0 0 1 3 4 7 12 13 15 20 25 30 32 35 39 37 33 30 31 35 35 32 29 28 29 30 30 29 25 22 22 22 21 21 23 27 28 26
0 0 0 0 1 1 1 1 2 4 6 9 12 14 16 19 24 29 32 34 37 36 32 29 30 35 37 34 33 33 33 33 33 32 29 26 25 25 25 25 27 30 31 29
0 0 0 1 2 2 2 3 4 6 9 11 13 15 17 19 23 27 30 32 34 32 29 28 31 35 37 37 37 38 37 36 35 34 33 30 29 30 31 31 33 36 35 33
0 0 1 2 2 2 3 4 6 9 11 13 14 15 18 21 24 27 30 33 34 31 30 33 35 36 36 36 37 38 37 35 35 35 35 35 34 35 37 37 38 38 36 34
0 0 1 2 2 2 3 5 7 8 10 13 14 15 19 25 28 30 34 36 35 32 33 37 40 39 37 35 34 34 34 34 34 36 37 39 39 41 41 40 38 36 33 32
0 0 1 2 2 2 3 4 6 7 10 14 15 16 20 27 30 32 35 36 35 33 34 37 40 41 39 35 31 32 33 35 37 39 41 42 42 43 42 38 34 33 32 31
0 0 1 3 2 2 3 6 8 10 13 15 17 19 24 27 29 30 31 31 32 33 35 37 38 39 39 34 31 31 34 38 40 41 42 42 42 42 41 38 33 32 32 31
0 0 2 5 5 6 9 11 12 13 15 18 20 24 28 28 27 25 25 25 27 31 35 35 34 35 36 32 29 28 32 36 37 38 39 40 40 40 41 39 36 32 30 29
1 1 4 8 11 12 14 15 15 14 15 16 20 24 27 27 24 21 19 19 21 26 30 30 28 28 30 29 27 27 29 32 33 34 35 37 37 37 37 37 35 32 28 26
4 4 6 10 14 14 14 14 14 13 12 13 16 19 22 25 22 18 15 15 18 21 24 25 24 23 24 25 25 26 28 29 30 30 30 31 31 30 30 30 30 28 24 22
6 6 8 11 12 12 13 12 11 9 8 9 11 13 17 21 21 17 13 14 17 18 19 22 23 22 22 22 22 23 25 26 25 25 25 26 25 21 20 20 20 19 17 16
11 11 12 12 12 12 13 12 9 8 7 7 8 10 14 17 18 15 13 14 17 18 18 19 20 20 20 20 20 22 22 22 21 20 21 22 20 17 13 11 9 8 8 8
16 15 14 14 15 14 13 11 9 8 8 8 8 10 13 15 15 14 14 15 17 18 17 16 17 18 19 19 20 20 20 19 18 17 16 17 17 15 12 7 3 2 2 2
15 15 15 16 16 13 11 10 9 8 9 8 9 12 15 16 16 15 15 15 17 18 17 15 15 18 18 18 18 18 17 16 15 13 12 13 14 14 12 8 4 2 2 1
13 14 15 15 13 10 9 8 8 7 8 9 10 12 16 18 17 18 17 16 16 17 17 16 16 18 18 17 17 17 16 14 13 12 10 10 11 12 11 9 7 6 5 3
12 12 13 12 10 8 7 7 7 7 9 10 9 11 15 17 17 19 18 16 16 17 18 19 19 19 18 17 17 16 15 13 12 12 10 9 9 10 10 10 9 9 8 7
10 10 9 9 8 7 7 7 6 7 9 10 9 9 11 14 16 18 19 18 18 18 19 20 21 20 19 19 18 16 15 13 10 10 10 10 10 11 11 11 11 10 9 8
7 7 7 7 7 8 8 7 7 8 10 11 10 9 9 11 14 17 18 19 19 19 20 19 18 17 17 18 18 15 13 11 9 8 10 11 12 12 12 11 11 10 8 6
6 6 5 5 7 9 9 8 8 10 12 13 12 10 9 10 12 15 16 17 18 19 20 18 14 12 13 13 13 13 11 8 6 7 10 10 11 11 11 11 10 9 7 5
5 4 3 4 6 8 7 7 8 11 14 14 12 10 10 11 12 13 14 15 16 18 18 15 12 11 10 8 8 9 8 6 4 6 8 9 10 11 11 11 10 9 7 6
3 3 2 3 4 4 4 6 7 10 12 12 10 9 8 9 11 11 11 11 11 13 14 13 11 10 8 6 6 7 6 4 4 5 7 9 9 9 10 10 9 8 8 7
2 2 2 2 2 2 3 4 6 8 9 8 7 7 7 7 7 6 6 7 7 7 9 9 7 6 5 4 6 8 7 6 7 7 7 7 6 5 6 6 6 6 6 6
3 2 2 2 2 3 3 4 6 7 6 5 4 5 5 5 4 3 3 3 3 3 4 5 3 2 2 4 7 10 10 10 10 8 5 3 3 2 2 2 2 3 4 4
3 3 3 3 3 3 3 3 5 6 5 3 3 3 3 3 3 3 2 2 2 1 2 2 1 0 2 5 8 10 11 10 9 6 4 2 1 1 1 0 0 2 3 3
2 2 2 2 2 2 1 1 3 4 4 3 3 3 3 3 3 3 3 2 2 2 2 1 0 0 3 6 7 8 8 8 6 5 4 3 1 0 1 1 1 2 3 3
1 1 1 1 1 1 0 0 1 2 3 3 4 4 3 3 3 3 3 4 3 3 4 2 1 2 4 6 6 6 6 6 6 6 6 4 1 1 2 2 2 2 2 2
0 0 0 0 0 0 0 0 0 1 2 3 4 4 3 3 3 3 4 5 5 5 4 3 2 3 5 6 6 6 6 6 6 6 6 4 2 2 3 3 2 1 1 1

GEFSNGP_con_prob3kmehi_252.txt.gz
EHI
0 0 0 0 0 0 0 0 1 3 7 14 21 28 35 40 38 37 35 34 38 44 47 51 55 56 54 53 56 60 65 67 66 63 60 56 51 50 48 42 40 40 37 34
0 0 0 0 0 0 0 0 1 4 9 16 21 26 33 39 39 38 35 36 41 47 51 56 60 60 59 57 57 60 65 68 66 63 60 58 55 53 50 46 45 44 41 39
0 0 0 0 0 0 1 2 4 8 13 17 21 25 32 38 40 39 37 40 47 51 53 57 60 62 63 61 58 59 62 64 63 59 57 56 54 53 51 49 49 49 47 44
0 0 0 0 0 1 3 6 8 11 14 16 21 28 34 39 42 41 39 43 49 50 49 50 52 56 61 61 58 57 57 57 55 53 52 51 49 49 50 50 50 50 47 43
0 0 0 0 0 2 5 8 10 12 14 15 19 26 35 43 45 43 40 44 47 46 45 45 45 48 54 56 55 53 52 51 51 50 50 49 46 46 48 49 48 45 42 41
0 0 0 0 1 3 5 8 10 13 15 17 20 27 36 45 48 46 45 47 48 46 47 48 47 48 51 52 51 50 49 49 50 50 49 48 45 43 45 46 45 41 39 40
0 0 1 2 2 6 12 16 16 18 20 23 29 35 41 45 48 48 48 49 49 48 50 53 53 53 53 52 51 51 51 49 48 47 45 43 42 42 43 44 44 42 41 41
1 2 5 7 9 15 25 28 26 25 24 27 32 38 42 43 42 43 45 48 49 49 50 53 54 54 54 54 54 53 50 46 43 41 38 38 40 42 43 45 45 44 43 43
7 8 11 14 18 24 28 30 30 29 26 26 30 35 39 38 34 34 40 46 49 50 50 50 50 49 51 53 53 48 44 41 37 34 33 34 37 39 41 43 42 40 40 41
15 15 16 17 20 23 23 24 26 26 25 25 28 32 33 32 32 33 39 45 49 50 49 46 45 45 47 48 45 40 37 34 32 28 27 29 32 33 34 35 35 34 35 36
20 19 17 16 17 17 18 20 21 22 24 24 26 26 26 27 32 35 40 45 48 48 46 43 41 42 43 43 40 36 33 29 26 25 24 25 26 24 24 24 23 24 26 28
19 18 17 16 15 15 16 17 18 20 22 23 23 21 21 24 29 33 36 39 41 41 40 38 36 36 37 38 38 36 30 24 22 22 23 23 22 18 16 13 11 11 13 15
18 18 17 16 15 15 16 17 18 19 21 21 20 18 20 23 25 27 30 32 32 32 31 32 31 30 31 35 37 33 26 20 20 20 20 20 19 16 13 9 6 4 4 5
18 18 17 16 16 17 17 17 17 18 19 19 16 16 19 22 22 23 25 26 24 22 23 27 29 28 29 31 32 28 21 18 19 19 18 17 17 16 14 12 9 7 4 2
17 17 17 16 16 16 16 16 17 18 17 16 15 14 17 19 19 20 21 21 20 19 20 24 28 30 29 28 27 23 19 17 17 16 15 14 15 15 15 14 13 11 7 4
14 14 14 14 14 14 15 15 15 14 14 14 13 13 14 15 17 17 17 18 20 20 21 23 27 29 29 26 23 20 16 14 13 11 10 11 14 16 15 14 13 12 10 8
12 12 12 12 12 13 13 12 11 10 11 10 10 11 12 14 16 17 17 19 21 23 23 23 24 27 27 24 19 15 12 10 10 10 9 12 15 17 16 14 12 11 11 10
13 12 12 12 11 11 11 10 9 8 9 9 9 10 12 15 18 19 18 19 22 23 23 22 21 23 24 21 16 12 10 10 10 12 14 17 18 17 15 13 11 11 11 10
14 13 13 12 11 10 10 10 10 10 10 9 10 11 14 18 21 21 19 19 21 22 22 21 18 19 20 18 14 12 11 10 9 12 17 20 18 17 16 14 12 11 11 12
12 12 12 12 11 10 10 10 10 11 10 10 10 12 16 20 22 21 19 19 19 19 18 17 16 17 18 15 11 10 10 8 7 9 14 16 16 16 17 15 13 13 13 13
9 9 10 10 10 10 10 10 9 9 9 9 9 12 17 20 21 18 15 14 14 14 13 13 14 14 14 11 7 7 8 7 7 7 9 11 13 13 13 12 11 11 11 10
7 7 7 7 7 8 8 7 6 6 6 6 7 10 15 17 16 13 10 8 7 7 8 9 9 8 7 7 7 6 7 8 7 7 6 8 9 8 8 6 6 6 7 7
4 5 5 5 4 3 3 3 3 4 4 4 6 9 12 13 12 9 6 3 3 3 4 5 4 2 3 6 8 8 8 9 8 7 6 7 8 6 4 3 2 3 5 6
4 5 4 3 2 1 1 1 1 2 3 6 8 9 9 9 9 7 4 1 1 2 2 2 1 0 3 7 9 8 8 8 7 6 6 7 7 5 3 3 3 3 5 6
6 5 5 3 2 2 1 1 1 2 5 7 8 9 7 6 6 5 2 0 0 1 1 1 1 1 2 5 6 6 6 6 5 4 4 5 6 4 4 4 5 5 5 6
4 4 3 2 2 2 1 1 3 5 6 7 8 7 5 3 2 1 1 1 1 1 1 0 1 1 1 2 3 3 4 4 3 2 3 4 5 4 4 6 6 5 4 4
2 1 1 1 1 1 0 2 5 7 8 7 7 6 4 2 0 0 1 2 2 2 1 0 1 1 1 1 1 1 2 3 3 2 3 4 4 4 4 5 5 4 3 3

GEFSNGP_con_prob3kmehi_258.txt.gz
EHI
0 0 0 0 0 0 0 1 3 6 8 9 11 14 16 16 17 21 26 30 31 29 27 27 28 31 33 32 29 26 23 19 17 15 14 14 15 15 13 12 12 11 10 10
0 0 0 0 0 0 1 3 5 7 8 10 13 16 16 17 19 23 26 28 30 30 29 27 27 28 30 30 28 26 23 20 19 18 16 16 17 17 14 13 14 14 14 15
0 0 0 0 0 1 3 6 7 7 9 12 17 18 18 19 22 24 26 27 29 30 29 27 25 24 26 27 26 23 21 21 21 20 19 19 20 18 15 15 17 18 18 19
0 0 0 0 1 2 5 7 8 8 11 17 21 22 21 23 25 28 29 28 28 28 27 25 22 19 21 24 24 21 18 20 21 22 22 22 22 20 17 16 18 18 19 19
0 0 0 0 1 3 6 8 9 11 15 20 24 24 24 26 29 32 30 28 27 27 28 26 22 18 18 21 22 20 18 19 21 23 24 24 24 23 21 19 18 18 18 18
0 1 1 1 1 3 6 8 11 15 19 22 23 23 23 26 29 31 30 28 27 30 32 31 26 23 21 20 20 20 19 19 20 22 23 23 25 26 25 22 20 19 19 19
1 2 2 3 3 2 4 8 13 18 20 20 21 21 22 23 24 27 30 31 32 34 35 33 30 28 25 21 19 20 19 17 18 20 20 21 23 25 25 23 21 21 21 20
1 2 3 4 4 4 5 10 15 19 21 22 22 23 22 21 22 26 31 35 37 36 36 33 30 28 26 23 20 20 19 16 15 16 18 21 22 23 22 22 21 22 22 21
3 5 6 6 7 9 12 15 17 20 22 23 24 25 23 22 24 29 33 36 37 36 34 31 28 27 25 21 19 19 18 15 13 13 15 17 20 21 21 21 20 20 20 19
7 9 11 12 12 14 17 18 19 19 19 19 20 22 21 22 25 29 31 32 33 32 30 28 26 26 22 18 17 17 16 14 13 14 14 13 14 17 19 19 19 19 18 18
9 11 12 13 13 15 17 18 18 17 15 15 16 18 19 21 24 26 26 26 26 26 24 23 23 23 21 17 15 15 15 14 14 15 14 12 11 12 14 15 15 16 17 18
7 8 10 10 10 11 13 15 16 15 14 13 14 15 15 17 19 21 21 20 20 20 20 19 19 19 19 17 15 14 14 15 14 13 13 12 10 9 10 10 9 10 12 13
5 6 8 8 7 7 10 13 13 12 12 12 12 11 11 13 16 17 17 16 16 18 20 19 17 16 15 16 15 14 14 14 13 12 11 11 10 8 8 7 5 4 4 4
6 6 7 7 5 5 8 12 13 11 10 10 9 8 9 11 13 13 14 14 15 17 20 20 18 16 13 13 14 14 13 13 12 11 10 9 9 9 7 6 5 3 1 0
7 6 6 5 5 5 8 11 12 10 9 7 7 7 8 10 11 11 11 13 14 15 17 18 19 17 13 11 12 12 12 12 12 11 10 8 8 8 7 6 6 4 1 0
7 6 6 6 6 6 7 9 9 8 7 6 6 7 8 8 9 10 10 11 13 13 13 16 17 16 14 12 11 10 11 12 12 12 10 8 7 8 8 7 6 5 3 1
6 6 6 7 8 7 6 7 6 6 5 5 6 6 6 7 8 9 9 10 10 10 11 13 14 14 14 12 10 9 9 11 11 10 8 7 6 7 8 6 6 6 5 3
6 6 6 7 7 7 6 6 6 5 5 5 6 6 5 6 7 8 9 9 10 10 10 11 12 12 13 12 10 9 9 9 8 6 5 5 5 5 5 4 4 5 4 3
6 6 6 6 5 5 6 7 6 6 6 6 6 6 6 6 7 8 8 9 9 9 8 9 10 11 11 11 11 10 9 8 7 4 2 2 3 3 3 2 3 4 3 1
5 6 6 5 4 4 5 7 7 6 6 6 6 6 5 4 5 6 6 6 6 5 4 5 7 8 8 8 9 10 9 8 7 4 2 1 2 2 2 2 3 3 2 1
5 5 5 3 3 3 5 6 7 5 4 3 3 3 3 2 2 3 4 4 3 2 2 3 4 5 6 6 6 7 8 7 6 3 1 1 1 1 1 1 1 2 2 2
3 3 2 1 1 2 4 4 5 4 2 1 1 1 1 0 1 3 3 2 1 1 2 2 2 3 3 3 3 4 5 5 3 1 0 1 1 0 0 0 0 1 2 3
1 1 0 0 0 1 2 2 2 2 2 1 1 0 0 0 1 2 3 1 0 1 1 1 1 1 1 2 3 3 4 3 1 0 0 0 0 0 0 0 0 2 3 3
0 0 0 0 0 0 1 1 1 2 2 2 1 0 0 0 0 1 1 0 0 0 0 0 0 0 0 2 3 3 2 1 0 0 0 0 0 0 0 0 0 1 2 3
0 0 0 0 0 0 0 0 1 1 1 1 1 0 0 0 0 0 0 0 0 0 0 0 0 0 0 1 2 1 1 0 0 0 0 0 0 0 0 0 0 0 1 1
0 0 0 0 0 0 0 0 0 0 0 0 0 0 0 0 0 0 0 0 0 0 0 0 0 0 0 0 0 0 0 0 0 0 0 0 0 0 0 0 0 0 0 0
0 0 0 0 0 0 0 0 0 0 0 0 0 0 0 0 0 0 0 0 0 0 0 0 0 0 0 0 0 0 0 0 0 0 0 0 0 0 0 0 0 0 0 0

GEFSNGP_con_prob3kmehi_264.txt.gz
EHI
0 0 0 0 0 0 0 0 0 1 2 3 3 4 7 7 6 5 6 10 16 19 18 15 11 11 9 6 3 3 3 2 1 0 0 1 3 3 3 4 4 5 6 6
0 0 0 0 0 0 0 0 0 1 2 3 4 6 8 10 9 8 9 14 18 20 19 16 13 12 10 6 4 3 3 1 0 0 1 2 3 3 3 3 4 4 5 5
0 0 0 0 0 0 0 1 1 1 2 3 5 8 9 11 11 10 12 16 18 18 18 15 13 10 8 5 3 2 2 1 0 0 1 2 4 5 4 4 3 3 3 3
0 0 0 0 0 0 1 2 2 2 3 5 8 9 9 10 9 9 11 14 15 15 15 13 11 9 7 3 2 1 1 0 1 2 2 4 5 6 6 5 4 3 2 3
0 0 0 0 0 0 1 2 3 4 6 9 10 10 8 8 8 8 9 10 12 13 13 12 11 10 8 4 2 2 1 0 1 3 5 6 7 7 7 6 5 4 3 3
0 0 0 1 1 1 1 2 4 6 9 10 9 7 6 8 10 11 10 11 13 14 12 12 12 11 9 6 3 2 1 1 2 5 8 10 11 10 10 9 7 6 5 4
0 0 0 1 2 2 1 1 4 7 10 10 7 5 8 12 14 14 13 14 15 15 14 13 14 13 10 8 5 3 2 3 5 6 9 12 14 15 14 12 10 8 7 5
0 0 0 1 2 2 1 2 5 7 9 8 8 10 14 17 16 15 15 15 15 16 16 16 16 15 13 12 10 8 7 8 9 8 8 10 13 16 16 13 12 11 9 7
0 0 0 0 1 1 1 3 6 7 7 9 13 16 17 17 15 14 15 16 16 16 16 15 16 16 14 14 14 12 9 9 9 8 7 8 11 14 14 13 14 13 10 9
0 0 0 0 0 0 2 5 6 7 8 11 16 17 16 14 13 13 14 14 14 14 14 13 14 14 14 14 14 12 7 5 6 7 7 8 10 12 12 13 13 11 10 10
0 0 0 0 0 1 3 4 5 7 9 12 13 14 14 14 13 13 13 12 11 12 13 13 12 13 13 13 14 12 7 5 6 6 5 5 7 9 10 11 10 8 9 11
0 0 0 0 0 0 1 2 4 6 8 9 10 10 13 15 14 13 11 9 9 11 12 12 10 11 12 13 15 12 9 7 6 6 5 5 5 6 7 8 7 5 6 8
0 0 0 1 0 0 0 1 3 4 5 6 8 9 10 12 11 10 8 7 7 9 10 9 8 8 9 11 12 11 9 8 7 7 7 7 7 6 6 7 6 4 3 3
0 0 0 0 0 0 1 2 3 4 4 4 6 6 6 6 6 5 5 5 6 6 6 6 6 6 7 9 9 10 10 10 9 9 8 8 8 8 8 8 8 6 3 1
0 0 0 0 0 1 2 3 4 5 4 3 4 4 3 3 3 2 3 4 4 3 3 4 4 5 6 7 9 9 10 10 10 11 10 9 7 7 8 8 8 7 4 2
0 0 0 0 1 1 3 4 5 5 4 3 3 3 3 3 3 3 3 3 2 2 3 3 2 2 4 6 8 9 9 8 9 11 11 9 7 6 7 7 6 6 5 4
0 0 1 1 2 3 3 4 4 4 3 3 3 3 3 3 3 3 3 3 3 3 3 3 2 2 3 4 6 7 7 7 7 9 9 9 7 6 6 6 6 5 5 4
1 2 3 4 5 4 3 3 4 3 3 3 3 3 3 3 3 4 4 4 4 4 4 3 2 3 3 3 4 5 6 6 6 7 7 6 6 5 5 6 6 6 4 3
4 5 5 6 6 5 4 3 3 3 3 3 3 3 3 3 4 5 6 5 5 5 4 3 3 3 4 4 4 4 4 4 5 6 5 4 2 2 3 5 6 5 4 3
6 6 6 6 5 4 3 3 3 3 3 3 3 3 3 4 5 6 6 5 4 4 3 3 3 4 5 5 3 3 3 3 4 5 4 2 0 0 2 4 5 5 4 4
6 6 5 4 4 3 3 3 3 3 3 3 3 3 4 5 5 6 5 4 3 2 2 2 2 3 3 3 3 3 4 4 4 3 3 1 0 1 2 4 5 5 4 3
4 4 4 3 3 3 3 3 2 2 2 2 3 3 3 3 3 3 3 2 1 1 1 1 1 1 1 1 2 3 4 4 3 1 1 0 0 1 2 3 4 4 3 2
2 2 2 2 2 2 2 1 1 1 1 1 1 2 2 1 1 1 1 1 0 0 0 0 0 0 0 1 2 3 3 3 2 1 0 0 0 0 1 1 1 1 1 0
1 1 1 1 1 1 1 0 0 0 0 0 0 1 1 0 0 0 0 0 0 0 0 0 0 0 0 1 2 1 1 1 1 0 0 0 1 0 0 0 0 0 0 0
0 0 0 0 0 0 0 0 0 0 0 0 0 0 0 0 0 0 0 0 0 0 0 0 0 0 0 1 1 0 0 0 0 0 0 0 1 0 0 0 0 0 0 0
0 0 0 0 0 0 0 0 0 0 0 0 0 0 0 0 0 0 0 0 0 0 0 0 0 0 0 0 0 0 0 0 0 0 0 0 1 0 0 0 0 0 0 0
0 0 0 0 0 0 0 0 0 0 0 0 0 0 0 0 0 0 0 0 0 0 0 0 0 0 0 0 0 0 0 0 0 0 0 0 1 0 0 0 0 0 0 0